Wind_Speed
92 92 92 92 92 92 92 92 92 93 93 93 93 93 93 93 92 92 92 92 93 93 93 93 93 93 94 94 94 95 95 96 96 96 97 97 97 97 97 98 98 98 98 99 99 99 100 100 100 100 101 101 101 102 102 103 103 103 104 104 104 103 103 103 103 103 102 102 102 102 101 101 101 101 101 101 101 101 101 101 101 101 101 101 101 101
92 92 92 92 92 92 92 92 92 92 93 93 93 93 93 93 93 93 93 93 93 94 94 94 95 95 96 96 97 97 98 98 98 99 99 99 100 100 100 100 100 100 101 101 101 102 102 102 103 103 103 103 104 104 104 105 105 106 106 106 106 106 105 105 105 105 104 104 104 103 103 103 103 103 103 103 103 103 103 103 103 103 103 103 103 103
92 92 92 92 92 92 93 92 92 92 93 93 93 93 93 93 93 93 94 94 95 95 96 96 97 97 98 99 99 99 100 100 101 101 101 102 102 102 102 102 103 103 103 103 104 104 104 105 105 105 105 105 106 106 106 107 107 107 108 108 108 108 107 107 107 106 106 106 105 105 104 104 104 104 104 104 104 104 105 105 105 105 105 104 104 104
92 92 92 92 92 92 92 93 93 93 93 93 93 93 93 94 94 94 95 96 96 97 98 98 99 99 100 101 101 102 102 102 103 103 103 104 104 104 104 104 105 105 105 105 106 106 106 107 107 107 107 107 107 107 108 108 108 109 109 109 109 109 108 108 108 107 107 106 106 106 105 105 105 105 105 105 105 105 105 106 106 106 106 106 106 106
92 92 92 92 92 92 92 93 93 94 94 94 94 95 95 95 96 96 96 97 98 98 99 100 101 101 102 103 103 103 104 104 105 105 105 105 106 106 106 106 107 107 107 107 108 108 108 108 108 108 108 108 108 108 108 109 109 109 109 109 109 109 109 108 108 108 107 107 106 106 105 105 105 105 105 105 105 105 106 106 106 106 106 107 107 107
92 92 92 92 93 93 93 93 94 95 95 96 96 96 96 97 97 98 98 99 99 100 101 101 102 103 103 104 104 105 105 106 106 106 107 107 107 107 108 108 108 109 109 109 109 109 109 109 109 109 108 108 108 108 108 109 109 109 109 109 108 108 108 108 108 108 107 107 106 106 105 105 104 104 104 105 105 105 105 105 105 106 106 106 107 107
92 92 93 93 93 94 94 95 95 96 97 97 97 98 98 98 99 99 99 100 100 101 102 102 103 104 104 105 105 106 106 107 107 108 108 108 109 109 109 110 110 110 110 110 110 109 109 109 108 108 108 107 107 107 108 108 108 108 108 108 108 108 108 108 108 108 107 106 106 105 104 104 104 104 104 104 104 104 104 104 104 105 105 105 106 106
93 94 94 94 95 95 95 96 97 97 98 98 99 99 99 100 100 100 100 101 101 102 102 103 104 104 105 106 106 107 108 108 108 109 109 110 110 110 110 111 111 111 110 110 110 109 108 108 107 107 106 106 106 106 106 107 107 106 106 106 106 107 107 107 107 107 106 105 105 104 103 103 103 103 103 103 103 103 103 103 103 103 104 104 104 104
94 95 95 95 96 96 97 98 98 98 99 99 100 100 100 101 101 101 101 101 102 102 103 104 104 105 106 106 107 108 108 109 109 110 110 110 111 111 111 111 111 110 110 109 109 108 107 106 106 105 104 104 104 104 104 104 104 104 104 104 104 105 105 105 105 105 104 104 103 102 102 101 101 101 101 101 102 102 102 101 102 102 102 102 102 103
96 96 97 97 97 97 98 99 99 100 100 100 101 101 101 102 102 102 102 102 103 103 103 104 105 106 107 108 108 109 109 110 110 110 110 110 111 111 111 110 110 109 108 107 107 106 105 104 103 103 102 102 102 102 102 102 101 101 101 101 101 102 102 102 102 102 102 101 101 100 99 99 99 99 99 99 100 100 100 100 100 100 100 100 100 100
97 97 97 98 98 98 98 99 100 100 101 101 102 102 102 102 102 102 103 103 104 104 104 105 105 106 107 109 109 110 110 110 110 110 110 109 109 109 109 108 108 107 106 105 104 103 102 102 101 100 100 99 99 99 99 98 98 98 97 98 98 98 99 99 99 99 99 98 98 97 97 96 96 96 97 97 97 97 97 97 97 97 97 97 98 98
98 98 98 98 99 99 99 100 100 101 101 102 103 103 104 104 103 103 104 104 105 105 105 106 106 107 108 109 110 110 110 110 109 109 108 108 108 107 107 106 105 103 102 101 101 100 99 98 98 97 96 96 96 95 95 95 94 94 94 94 94 95 95 95 95 95 95 95 94 94 93 93 93 93 93 94 94 94 94 94 94 94 94 95 95 95
99 99 99 99 99 100 100 101 101 102 102 103 103 104 105 105 105 104 105 105 106 106 106 106 107 107 108 108 109 109 109 108 107 106 106 105 105 104 104 102 101 100 99 98 97 97 96 95 94 93 93 92 92 91 91 91 90 90 90 91 91 91 91 92 91 91 91 91 91 90 90 89 89 90 90 90 91 91 91 91 91 91 91 91 92 92
100 100 100 100 101 101 101 101 102 103 103 104 104 105 105 105 106 106 106 106 106 106 106 106 106 107 107 108 108 107 107 106 104 103 102 102 101 101 100 99 97 96 94 94 93 93 92 91 90 89 88 88 88 87 87 86 86 86 87 87 87 87 87 87 87 87 87 87 86 86 86 86 86 86 86 86 87 87 87 87 87 87 88 88 88 89
101 101 101 101 102 102 102 102 102 103 104 105 105 105 105 106 106 106 106 106 106 106 105 105 105 105 105 106 105 105 104 102 101 99 98 98 97 96 95 94 93 91 90 89 89 88 87 86 85 84 84 84 83 83 83 82 82 82 83 83 83 83 83 83 83 83 83 83 82 82 81 81 81 82 82 82 83 83 83 83 83 84 84 84 85 85
101 101 102 102 102 102 103 103 103 104 105 105 105 105 105 105 106 106 106 105 105 104 104 103 103 103 103 103 102 101 100 98 97 95 94 93 93 91 90 89 88 86 85 85 84 84 83 82 81 80 80 79 79 79 79 78 78 79 79 79 79 79 79 79 79 79 78 78 78 77 77 77 77 78 78 78 78 78 79 79 79 80 80 80 81 82
101 101 102 102 102 103 103 103 104 104 105 105 105 105 105 105 105 105 104 104 103 102 102 101 101 101 101 100 99 97 96 94 93 91 89 89 88 87 86 85 83 82 81 81 80 80 79 78 77 76 76 76 75 75 75 75 75 75 75 75 74 74 74 74 74 74 74 74 73 73 73 73 73 73 74 74 74 74 74 75 75 75 76 77 77 78
102 101 102 102 102 103 103 103 104 104 105 104 104 104 103 103 103 103 102 101 101 100 99 98 98 97 97 97 96 93 91 90 88 86 85 84 83 83 82 80 79 78 77 77 76 76 75 74 74 73 73 72 72 72 71 71 71 71 71 70 70 70 70 70 70 70 70 69 69 68 68 69 69 69 69 69 69 70 70 70 71 72 72 73 74 75
102 102 102 102 102 103 103 103 104 104 104 104 103 103 102 102 101 100 100 99 98 97 97 96 95 94 93 93 91 89 87 86 84 82 81 80 80 79 78 77 76 75 74 74 73 72 72 71 71 70 70 69 69 68 68 68 68 67 67 67 67 67 67 67 67 66 65 65 65 64 65 65 65 65 65 65 65 66 66 67 67 68 69 70 70 71
102 102 102 102 102 103 103 104 104 104 103 103 102 102 101 100 99 98 97 96 96 95 94 94 93 91 90 89 87 85 83 82 80 78 77 76 76 76 75 74 73 72 71 71 70 69 69 68 68 67 67 66 66 65 65 65 64 64 64 64 64 64 64 63 63 62 61 61 61 61 61 61 61 61 61 61 61 62 62 63 64 65 65 66 67 67
103 103 103 102 103 103 103 103 103 103 103 102 101 101 100 98 97 96 95 94 94 93 92 91 89 87 86 85 83 82 80 78 76 75 74 73 73 73 72 71 70 69 69 68 67 66 66 65 65 65 64 64 63 63 62 62 61 61 61 61 61 61 61 60 59 58 58 58 58 58 58 58 57 57 58 58 58 59 59 60 61 61 62 63 63 64
104 104 103 103 103 103 103 103 103 103 102 101 100 99 98 97 95 94 93 92 91 90 89 87 86 84 82 81 80 78 77 75 73 72 71 71 71 71 70 68 67 66 66 65 65 64 63 63 62 62 61 61 60 60 59 59 59 59 59 59 58 58 57 56 56 55 55 55 54 54 54 54 54 54 55 55 55 56 56 57 58 58 59 59 60 60
105 104 104 104 103 103 103 103 102 102 101 100 99 98 96 94 93 92 91 90 89 87 86 84 82 80 79 78 77 76 74 72 71 69 69 69 69 68 67 65 65 64 63 63 62 61 61 60 60 59 59 58 58 57 57 57 56 56 56 56 56 55 54 53 53 52 52 52 51 51 51 51 51 51 52 52 52 53 53 54 54 55 55 56 56 56
105 105 104 104 104 103 103 102 102 101 100 99 97 95 93 92 90 89 88 87 85 84 82 80 79 78 77 75 75 74 72 70 68 67 67 67 67 66 64 63 62 62 61 60 59 59 58 58 57 57 56 56 55 55 54 54 54 54 54 53 53 52 51 50 50 49 49 49 49 48 48 49 49 49 49 49 50 50 51 51 51 52 52 52 53 53
105 104 104 104 103 103 102 102 101 100 99 97 96 93 91 89 87 86 84 83 82 80 79 77 76 75 74 73 72 71 70 68 66 65 65 65 65 64 62 60 60 59 59 58 57 56 56 55 55 54 54 53 53 52 52 52 52 52 51 51 50 49 48 47 47 47 46 46 46 46 46 46 46 46 47 47 47 48 48 48 49 49 49 49 50 50
104 103 103 103 102 102 101 101 100 98 97 95 93 91 88 86 84 83 81 80 79 77 76 74 73 72 71 70 69 68 67 65 64 63 63 63 62 61 60 58 57 57 56 56 55 54 53 53 53 52 51 51 51 50 50 50 49 49 49 48 47 46 45 45 44 44 44 43 43 43 43 43 44 44 44 44 45 45 45 46 46 46 46 47 47 47
103 102 102 101 101 100 99 99 98 96 95 93 90 88 85 83 82 80 79 77 75 74 73 71 70 69 68 68 67 66 64 63 62 61 60 60 60 59 57 56 55 55 54 53 53 52 51 51 50 50 49 49 48 48 48 47 47 47 46 45 44 43 43 42 42 42 41 41 41 41 41 41 41 41 42 42 42 43 43 43 43 44 44 44 44 44
102 101 101 100 99 98 97 96 95 93 91 89 87 84 82 80 79 78 76 75 73 71 70 69 68 67 66 65 64 63 62 61 60 59 58 58 57 56 55 54 53 53 52 51 50 49 49 48 48 48 47 47 46 46 45 45 45 44 43 42 41 41 40 40 39 39 39 39 38 38 38 38 39 39 39 40 40 41 41 41 41 41 42 42 42 42
100 100 99 97 96 95 94 92 91 89 88 86 83 81 79 78 77 76 74 73 71 69 68 67 66 65 64 63 62 61 59 58 57 57 56 55 55 54 53 52 51 51 50 49 48 47 47 46 46 46 45 44 44 44 43 43 43 42 41 40 39 38 38 37 37 37 37 36 36 36 36 36 36 37 37 38 38 38 39 39 39 39 39 39 39 39
98 98 96 95 93 92 90 89 87 86 84 82 80 78 76 75 74 73 72 70 69 67 66 65 64 63 62 61 60 59 58 56 55 55 54 53 52 51 50 50 49 49 48 47 46 45 45 45 44 44 43 42 42 42 41 41 40 40 39 38 37 36 36 35 35 35 34 34 34 34 34 34 34 35 35 36 36 36 37 37 37 37 37 37 37 37
96 95 93 92 90 88 87 85 84 82 80 78 76 75 74 73 72 71 69 68 66 65 64 63 62 61 60 59 58 57 56 55 54 53 52 51 50 49 48 48 47 47 46 45 44 43 43 43 43 42 41 41 40 40 40 39 38 38 37 36 35 34 34 33 33 33 33 32 32 32 32 32 32 33 33 34 34 35 35 35 35 35 35 35 35 35
93 92 90 88 87 85 83 82 80 79 77 75 73 72 71 71 70 69 67 66 64 63 62 61 60 59 58 57 56 55 54 53 52 51 50 49 48 47 47 46 45 45 44 43 42 42 41 41 41 40 39 39 39 38 38 37 37 36 35 34 33 33 32 32 31 31 31 31 30 30 30 31 31 31 32 32 33 33 33 33 33 33 33 33 33 33
89 88 86 85 83 82 80 79 78 76 74 72 71 70 69 69 68 67 65 64 62 61 60 59 59 57 56 55 54 53 52 51 51 49 48 47 46 46 45 44 44 43 42 41 40 40 40 40 40 39 38 38 37 37 36 36 35 34 33 32 32 31 31 30 30 29 29 29 29 29 29 29 30 30 31 31 31 32 32 32 32 32 31 31 32 32
86 84 83 81 80 79 78 77 75 73 71 70 68 68 67 66 66 64 63 62 60 59 58 58 57 56 54 53 52 51 50 49 49 48 47 46 45 44 43 43 42 41 40 40 39 39 38 38 38 37 37 36 36 35 35 34 33 33 32 31 30 30 29 29 28 28 28 28 27 27 28 28 28 29 29 30 30 30 30 30 30 30 30 30 30 30
82 81 79 78 77 76 75 74 73 71 69 67 66 66 65 64 63 62 61 60 58 57 57 56 55 54 53 52 50 49 48 47 47 46 45 44 43 43 42 41 41 40 39 38 38 37 37 37 37 36 36 35 35 34 33 33 32 31 30 29 29 28 28 27 27 27 26 26 26 26 26 27 27 28 28 29 29 29 29 29 29 29 29 29 29 29
79 78 76 75 74 74 73 72 70 68 66 65 64 64 63 62 61 60 59 58 57 56 55 54 53 52 51 50 49 48 47 46 45 44 44 43 42 41 41 40 39 38 37 37 36 36 36 36 35 35 34 34 33 33 32 31 31 30 29 28 27 27 26 26 26 25 25 25 25 25 25 26 26 27 27 28 28 28 28 28 28 27 27 27 27 28
76 75 74 73 72 71 70 69 67 66 64 63 63 62 61 60 59 58 57 56 55 54 53 52 51 50 49 48 47 46 45 45 44 43 42 41 41 40 39 38 38 37 36 35 35 35 35 35 34 34 33 33 32 32 31 30 29 28 27 27 26 25 25 24 24 24 23 23 23 24 24 25 25 26 26 27 27 26 26 26 26 26 26 26 26 26
74 73 71 70 69 69 68 66 65 63 62 61 61 60 59 58 57 56 55 54 53 52 51 50 49 48 47 46 45 45 44 43 43 42 41 40 40 39 38 37 36 35 35 34 34 34 33 33 33 32 32 31 31 30 29 28 27 27 26 25 24 24 23 23 23 22 22 22 22 23 23 24 24 25 25 25 25 25 25 25 24 24 24 24 24 24
71 70 69 68 67 66 65 64 62 61 60 60 59 58 57 56 55 54 53 52 51 50 49 49 48 47 46 45 44 43 42 42 41 41 40 39 38 37 37 36 35 34 33 33 33 32 32 32 31 31 31 30 29 29 28 27 26 25 24 23 23 22 22 22 21 21 21 21 21 22 22 22 23 23 24 24 24 23 23 23 23 23 23 23 23 23
68 67 66 65 64 63 62 61 60 59 58 58 57 56 55 54 53 52 51 50 49 49 48 47 46 45 44 43 42 41 41 40 40 39 38 38 37 36 35 35 34 33 32 32 31 31 30 30 30 29 29 29 28 27 26 25 24 23 23 22 21 21 20 20 20 20 20 20 20 20 21 21 22 22 22 22 22 22 22 22 22 21 21 21 21 21
66 65 64 63 62 61 60 59 58 57 56 56 55 55 53 52 51 50 49 48 47 47 46 45 44 43 42 41 41 40 40 39 38 38 37 36 36 35 34 33 32 32 31 30 30 29 29 28 28 28 27 27 26 26 25 24 23 22 21 20 20 19 19 19 18 18 18 19 19 19 20 20 21 21 21 21 21 21 20 20 20 20 20 20 20 20
64 63 62 61 60 59 58 57 56 55 54 54 54 53 52 50 49 48 47 47 46 45 45 44 43 42 41 40 39 39 38 38 37 36 36 35 34 33 33 32 31 30 30 29 28 28 27 27 26 26 26 26 25 24 23 22 22 21 20 19 18 18 17 17 17 17 17 17 18 18 19 19 20 20 20 20 20 19 19 19 18 18 18 18 18 18
62 61 60 59 58 57 56 54 54 53 53 52 52 51 50 49 47 46 46 45 44 44 43 42 41 40 39 39 38 38 37 36 35 35 34 33 32 32 31 30 30 29 28 27 27 26 25 25 25 25 24 24 24 23 22 21 20 19 18 18 17 16 16 15 15 16 16 16 17 18 18 18 19 19 19 18 18 18 17 17 17 17 17 17 17 17
60 59 58 57 56 55 54 53 52 51 51 50 50 49 48 47 46 45 44 43 43 42 41 41 40 39 38 37 37 36 36 35 34 33 32 32 31 30 29 29 28 27 26 26 25 24 24 24 23 23 23 22 22 21 21 20 18 18 17 16 16 15 14 14 14 15 15 16 16 17 17 18 18 17 17 17 17 16 16 15 15 15 16 16 16 16
58 57 56 55 54 52 51 50 50 49 49 48 48 47 46 45 44 43 42 42 41 41 40 39 38 37 37 36 36 35 34 34 33 32 31 30 29 28 28 27 26 26 25 24 24 23 23 22 22 22 21 21 20 20 19 18 17 16 15 15 14 14 14 14 14 14 15 15 16 16 17 17 16 16 16 15 15 15 14 14 14 14 15 15 15 16
56 55 54 52 51 50 49 48 48 47 47 47 46 45 44 43 42 41 41 40 39 39 38 37 37 36 36 35 34 34 33 32 31 30 29 28 28 27 26 25 25 24 24 23 23 22 22 21 21 20 20 19 19 18 17 16 15 14 14 14 14 14 14 14 14 14 15 15 15 15 15 15 15 14 14 14 14 13 13 13 13 13 14 14 14 14
54 53 52 50 49 48 47 47 46 46 45 45 44 43 42 41 40 40 39 39 38 37 36 36 35 34 34 33 33 32 31 30 29 28 27 26 26 25 25 24 24 23 23 22 22 21 20 20 19 19 18 17 17 16 15 15 14 13 13 13 13 13 14 14 14 14 14 14 14 14 14 14 13 13 13 13 12 12 12 12 12 12 13 13 13 13
52 51 50 49 47 46 46 45 44 44 44 43 42 42 41 40 39 38 38 37 36 35 35 34 34 33 32 32 31 30 29 28 27 26 25 25 24 24 23 23 23 22 22 21 20 20 19 18 18 17 16 16 15 14 14 13 13 13 13 13 13 13 13 13 13 13 13 13 13 13 12 12 12 12 12 12 12 11 11 11 11 11 11 12 12 12
50 49 48 47 46 45 44 43 43 42 42 41 41 40 39 38 37 37 36 35 34 34 33 33 32 31 31 30 29 28 27 26 25 24 24 23 23 22 22 22 21 21 20 19 19 18 17 17 16 15 15 14 13 13 13 12 12 12 12 12 12 12 12 12 12 12 12 12 11 11 11 11 11 11 11 11 10 10 10 10 10 10 10 10 10 10
48 47 46 45 44 43 42 41 41 40 40 39 39 38 37 37 36 35 35 34 33 32 32 31 30 30 29 28 27 26 25 24 23 23 22 22 22 21 21 21 20 19 19 18 17 16 16 15 15 14 14 13 13 12 12 12 12 12 12 12 12 12 11 11 11 11 10 10 10 10 10 10 10 10 10 10 10 9 9 9 9 9 10 10 10 10
46 45 44 43 42 41 40 40 39 39 38 37 37 36 36 35 35 34 33 32 31 31 30 29 29 28 27 27 26 25 23 22 21 21 21 21 21 20 20 19 19 18 17 16 15 15 14 13 13 12 12 12 12 11 11 11 11 11 11 11 11 10 10 10 10 10 9 9 9 9 9 9 9 9 9 9 9 9 9 9 9 9 9 9 9 9
Wind_Direction
292 292 292 292 292 292 292 292 292 292 292 292 292 293 293 293 293 293 292 292 292 292 292 291 291 290 290 289 289 288 288 287 287 286 286 285 285 284 284 283 283 282 282 281 281 280 280 279 279 278 277 277 276 276 276 275 275 274 274 273 273 272 272 271 271 270 270 269 269 269 268 268 268 268 267 267 267 267 266 266 266 266 265 265 265 264
292 292 292 293 293 293 293 293 293 293 293 293 293 293 293 293 293 293 292 292 292 292 291 291 290 290 289 289 288 288 287 287 286 286 285 285 285 284 284 283 283 282 282 281 281 280 279 279 278 278 277 277 276 276 275 275 274 274 273 273 273 272 272 271 271 270 270 269 269 269 268 268 268 268 267 267 267 267 267 267 266 266 266 266 265 265
293 293 293 293 293 293 293 293 293 293 293 293 293 293 293 293 293 292 292 292 292 291 291 291 290 290 289 289 288 288 287 287 286 286 285 285 285 284 284 283 283 282 281 281 280 280 279 279 278 277 277 276 276 275 275 275 274 274 274 273 273 273 272 272 271 271 271 270 270 269 269 269 268 268 268 267 267 267 267 267 267 266 266 266 266 265
293 293 293 294 294 294 294 294 294 294 293 293 293 293 293 292 292 292 292 291 291 291 290 290 290 289 289 288 288 287 287 287 286 286 285 285 284 284 283 283 282 282 281 280 280 279 279 278 278 277 277 276 276 276 275 275 275 274 274 274 274 273 273 273 273 272 272 271 271 270 270 269 269 269 268 268 268 267 267 267 267 267 266 266 266 266
294 294 294 294 294 294 294 294 294 294 293 293 293 293 292 292 292 292 291 291 291 290 290 290 289 289 289 288 288 287 287 286 286 286 285 284 284 283 283 282 282 281 280 280 279 279 278 278 278 277 277 277 276 276 276 276 275 275 275 275 275 275 274 274 274 273 273 272 272 271 271 270 270 269 269 268 268 268 267 267 267 267 266 266 266 266
294 294 294 295 295 294 294 294 294 294 293 293 293 292 292 292 292 291 291 291 290 290 290 289 289 289 288 288 288 287 287 286 286 285 285 284 283 283 282 282 281 281 280 280 279 279 278 278 278 278 278 277 277 277 277 277 276 276 276 276 276 276 275 275 274 274 273 273 272 272 271 271 270 270 269 269 268 268 267 267 267 266 266 266 266 266
295 295 295 295 295 295 294 294 294 293 293 293 293 292 292 292 291 291 291 290 290 290 289 289 288 288 288 287 287 286 286 285 285 284 284 283 283 282 282 282 281 281 280 280 280 280 279 279 279 279 279 279 278 278 278 277 277 277 277 276 276 276 275 275 274 274 274 273 272 272 271 271 270 270 269 269 268 268 267 267 266 266 266 266 265 265
295 295 295 295 295 295 294 294 294 293 293 293 293 292 292 291 291 291 290 290 290 289 289 288 288 287 287 287 286 286 285 285 284 284 283 283 283 282 282 282 282 281 281 281 281 281 281 280 280 280 280 280 279 279 278 278 278 277 277 276 276 275 275 274 274 274 273 272 272 272 271 271 270 270 269 269 268 268 267 267 266 266 266 265 265 265
296 295 295 295 295 295 295 294 294 293 293 293 293 292 292 291 291 290 290 289 289 289 288 288 288 287 286 286 285 285 285 284 284 284 283 283 283 283 283 283 283 282 282 282 282 282 282 282 282 281 281 280 280 279 279 278 278 277 276 276 275 275 274 274 273 273 272 272 272 271 271 270 270 269 269 268 268 267 267 267 266 266 265 265 265 265
296 295 295 295 295 295 295 294 294 293 293 293 293 292 292 291 291 290 290 289 289 288 288 287 287 287 286 286 285 285 284 284 284 284 284 284 284 284 284 284 284 284 284 284 284 284 283 283 283 282 281 281 280 279 278 278 277 276 276 275 275 274 274 273 273 272 272 272 271 271 270 270 269 269 269 268 268 267 267 267 266 266 266 265 265 265
296 295 295 295 295 295 294 294 294 294 293 293 293 292 291 291 290 290 290 289 288 288 287 287 287 286 286 286 286 285 285 285 285 285 285 285 285 285 285 285 285 285 285 285 285 284 284 283 283 282 281 281 280 279 278 277 277 276 276 275 274 274 273 273 273 272 272 271 271 270 270 270 269 269 268 268 268 267 267 267 266 266 266 265 265 265
296 296 296 296 295 295 295 295 294 294 294 293 293 292 291 291 290 290 289 289 288 288 288 287 287 287 286 286 286 286 286 286 286 286 286 286 286 286 286 286 286 286 286 285 285 284 284 283 283 282 281 280 279 279 278 277 277 276 276 275 274 274 273 273 272 272 272 271 271 271 270 270 269 269 268 268 268 267 267 267 266 266 266 265 265 265
297 296 296 296 296 296 295 295 295 294 294 293 293 292 292 291 291 290 290 289 289 288 288 288 288 288 287 287 287 287 287 287 287 287 288 288 287 287 287 287 287 286 286 286 285 284 284 283 282 281 281 280 279 279 278 278 277 276 276 275 274 274 273 273 272 272 272 271 271 271 270 270 269 269 269 268 268 267 267 267 266 266 266 265 265 265
297 297 297 297 296 296 296 295 295 294 294 293 292 292 291 291 291 290 290 289 289 289 289 288 288 288 288 288 288 288 288 288 288 288 288 288 288 288 288 287 287 287 286 286 285 284 283 283 282 281 281 280 280 279 278 278 277 276 276 275 274 274 273 273 273 272 272 272 271 271 271 270 270 269 269 268 268 267 267 267 266 266 266 265 265 264
298 298 297 297 297 296 296 295 295 294 293 293 292 292 291 291 291 290 290 289 289 289 289 289 289 289 289 289 289 289 289 289 289 289 289 289 289 288 288 288 287 287 286 286 285 284 283 283 282 282 281 281 280 279 278 278 277 276 276 275 275 274 274 274 273 273 272 272 272 271 271 270 270 269 269 268 268 267 267 267 266 266 265 265 264 264
298 298 297 297 297 296 296 295 294 294 293 292 292 292 291 291 291 290 290 290 290 290 290 290 290 290 290 290 290 290 290 290 290 290 290 290 289 289 288 288 287 287 286 286 285 284 284 283 283 282 282 281 280 279 279 278 277 277 276 276 275 275 275 274 274 273 273 273 272 272 271 271 270 269 269 268 268 267 267 266 266 265 265 264 264 263
297 297 297 297 296 296 295 295 294 293 293 292 292 292 291 291 291 291 291 291 291 291 291 292 291 291 291 291 291 291 291 291 291 291 291 290 290 289 289 288 288 287 287 286 285 285 284 284 283 283 282 281 280 280 279 279 278 277 277 276 276 276 275 275 274 273 273 273 272 272 271 271 270 269 269 268 268 267 267 266 266 265 264 264 263 263
297 297 297 296 296 295 295 294 294 293 293 292 292 292 292 292 292 292 292 292 292 293 293 293 293 292 292 292 292 292 292 292 292 292 291 291 290 290 289 289 288 288 287 286 286 285 285 285 284 283 282 282 281 280 280 279 279 278 278 277 277 276 275 275 274 274 273 273 273 272 272 271 270 270 269 268 268 267 266 266 265 264 264 263 262 262
297 297 296 296 296 295 295 294 294 293 293 293 293 293 293 293 293 293 293 294 294 294 294 294 294 293 293 293 293 293 293 293 292 292 292 292 291 290 290 289 289 288 288 287 286 286 286 285 285 284 283 283 282 281 281 280 280 279 279 278 277 276 276 275 275 274 274 274 273 272 272 271 270 270 269 268 268 267 266 265 264 264 263 262 262 261
297 297 297 296 296 296 295 295 294 294 294 294 294 294 294 294 294 295 295 295 295 295 295 295 295 294 294 294 294 293 293 293 293 293 293 292 291 291 290 289 289 289 288 288 287 287 286 286 285 284 284 283 283 282 281 281 280 280 279 278 277 276 276 275 275 275 275 274 273 273 272 271 270 270 269 268 267 267 266 265 264 263 263 262 262 261
298 298 297 297 297 296 296 295 295 295 295 295 295 295 295 295 296 296 297 297 297 296 296 296 295 295 295 295 294 294 294 294 293 293 293 292 291 291 290 290 290 289 289 288 288 287 287 286 286 285 284 284 283 283 282 281 281 280 279 278 277 277 276 276 276 275 275 274 273 273 272 271 270 270 269 268 267 266 265 264 264 263 262 262 262 261
299 298 298 298 297 297 297 296 296 296 296 296 296 296 296 297 297 298 298 298 297 297 296 296 296 296 296 295 295 294 294 294 294 294 293 293 292 291 290 290 290 290 289 289 288 288 287 287 286 285 285 284 284 283 282 281 280 280 279 278 277 277 277 277 276 276 275 274 273 273 272 271 270 269 268 268 267 266 265 264 264 263 262 262 262 261
299 299 299 298 298 298 297 297 297 297 297 297 297 297 297 298 298 298 298 298 297 297 297 297 297 296 296 296 295 295 295 295 295 294 294 293 292 291 291 291 291 290 290 289 289 288 288 287 286 286 285 284 284 283 282 281 280 280 279 278 278 278 277 277 277 276 275 274 273 272 272 271 270 269 268 267 266 265 265 264 264 263 263 262 262 261
300 299 299 299 298 298 298 298 298 298 298 298 298 298 298 299 299 299 299 298 298 297 297 297 297 297 296 296 296 295 295 295 295 295 294 293 292 292 292 292 291 291 290 290 289 288 288 287 286 286 285 284 284 283 282 281 280 280 279 279 279 278 278 278 277 276 275 274 273 272 271 271 270 269 268 267 266 265 265 264 264 263 263 262 262 261
300 299 299 299 299 298 298 298 298 298 298 298 299 299 299 300 299 299 299 298 297 297 297 297 297 297 296 296 296 295 295 296 295 295 294 293 293 292 292 292 292 291 290 290 289 289 288 287 287 286 285 285 284 283 282 281 280 280 279 279 279 279 278 278 277 276 275 274 273 272 271 270 269 268 268 267 266 265 265 264 264 263 263 262 262 261
299 299 299 299 299 298 299 299 299 299 299 299 299 299 300 300 300 299 298 298 297 297 297 297 297 296 296 296 295 295 295 295 295 294 294 293 293 293 293 293 292 291 290 290 289 289 288 287 287 286 285 285 284 283 282 281 281 280 280 280 279 279 278 278 277 276 274 273 272 271 271 270 269 268 267 266 266 265 264 264 263 263 262 262 261 261
299 299 299 298 298 299 299 299 299 299 299 299 299 300 300 300 299 299 298 297 297 297 297 297 297 296 296 295 295 295 295 295 295 294 294 293 293 293 293 293 292 291 291 290 289 289 288 288 287 286 285 285 284 283 282 282 281 281 280 280 280 279 278 277 276 275 274 273 272 271 270 269 268 268 267 266 265 265 264 263 263 263 262 262 261 261
299 299 298 298 298 299 299 299 299 299 299 299 299 300 300 300 299 298 298 297 297 297 297 297 296 296 296 295 295 295 295 295 295 294 294 293 293 293 293 293 292 291 291 290 290 289 289 288 287 286 285 285 284 283 282 282 281 281 280 280 279 279 278 276 276 274 274 273 272 271 270 269 268 267 266 265 265 264 264 263 262 262 262 261 261 261
299 299 299 299 299 299 299 298 299 299 299 299 299 300 300 299 299 298 298 298 298 298 297 297 296 296 296 295 295 295 295 295 294 294 294 294 293 293 293 293 292 291 291 291 290 289 289 288 287 286 286 285 284 283 282 282 281 281 280 280 279 278 277 276 275 274 273 272 271 270 269 268 267 266 266 265 264 264 263 263 262 262 262 261 261 261
299 299 299 299 299 299 299 299 298 298 299 299 299 300 300 299 298 298 298 298 298 298 297 297 296 296 296 296 296 295 295 295 295 294 294 294 294 294 293 293 292 292 291 291 290 290 289 288 287 286 286 285 284 283 282 282 281 281 280 280 279 278 277 276 275 274 273 272 271 270 269 268 267 266 265 264 264 263 263 262 262 261 261 261 261 260
299 299 299 299 299 299 299 299 298 298 299 299 299 299 299 298 298 297 298 298 298 298 297 297 296 296 296 296 296 296 295 295 295 294 294 294 294 294 293 293 292 291 291 291 290 290 289 288 287 286 286 285 284 283 282 282 281 281 281 280 279 278 277 276 275 274 273 272 271 270 268 267 266 265 264 263 263 262 262 262 261 261 261 261 260 260
299 299 299 299 299 299 299 299 299 299 299 299 300 299 299 298 297 297 297 298 298 297 297 297 296 296 296 296 296 296 296 295 295 295 294 294 294 293 293 292 292 291 291 291 290 289 288 287 287 286 285 285 284 283 283 282 282 281 281 280 279 278 277 276 275 273 272 271 270 269 267 266 265 264 263 262 262 262 261 261 261 260 260 260 259 259
299 299 299 299 299 299 299 298 299 299 299 299 299 299 298 297 297 297 297 297 297 297 297 296 296 296 296 296 296 295 295 295 295 295 295 294 294 293 293 292 292 291 291 290 290 289 288 287 286 286 285 284 284 283 283 282 282 281 281 280 279 278 277 276 274 273 272 270 269 268 266 265 264 263 262 262 261 261 260 260 260 259 259 259 258 258
299 299 299 299 299 299 299 298 298 299 299 299 299 298 297 297 297 297 297 297 297 297 296 296 296 296 296 296 296 295 295 295 295 295 294 294 294 293 293 292 292 291 291 290 289 288 287 287 286 286 285 284 284 283 282 282 282 281 281 280 279 278 277 275 273 272 271 269 268 266 265 264 263 262 261 260 260 260 259 259 259 258 258 258 257 257
299 299 299 299 299 299 298 298 299 299 299 299 298 298 297 297 297 297 297 297 296 296 296 296 295 295 295 296 295 295 295 295 294 294 294 294 293 293 292 292 291 291 290 290 289 288 287 286 286 285 285 284 283 283 282 282 281 281 280 279 278 277 275 274 273 271 270 268 267 265 264 262 261 261 260 259 259 258 258 258 257 257 257 257 256 256
299 299 299 299 299 298 298 298 299 299 299 299 298 297 296 296 296 297 296 296 296 296 295 295 295 295 295 295 295 295 295 295 294 294 294 293 293 292 292 291 291 291 290 289 288 288 287 286 285 285 284 284 283 283 282 281 281 280 279 278 277 276 274 273 271 270 268 267 265 263 262 261 260 259 258 258 258 257 257 257 257 256 256 255 255 254
299 299 299 299 298 298 298 298 299 299 299 298 297 296 296 296 296 296 296 296 295 295 295 295 295 295 295 295 295 295 295 294 294 294 293 293 293 292 292 291 291 290 290 289 288 287 286 285 285 284 284 283 283 282 281 281 280 279 278 277 276 275 273 272 270 269 267 265 263 261 260 259 258 257 257 257 256 256 256 256 255 255 254 254 253 253
299 299 299 298 298 298 298 298 298 298 298 297 296 296 296 296 296 296 295 295 295 294 294 294 294 294 294 294 294 294 294 294 294 294 293 293 293 292 291 291 291 290 289 288 287 287 286 285 284 284 283 283 282 281 281 280 279 278 277 276 275 273 272 271 269 267 265 263 261 259 258 257 256 256 255 255 255 255 255 254 254 253 253 252 252 251
299 298 298 298 298 298 298 298 298 298 297 297 296 296 295 295 295 295 295 295 294 294 294 294 294 294 294 294 294 294 294 294 293 293 293 293 292 292 291 291 290 290 289 288 287 286 285 284 284 283 283 282 281 280 280 279 279 278 276 275 274 272 271 269 267 265 263 261 259 257 256 255 254 254 254 254 254 254 253 253 252 252 251 251 250 250
299 299 298 298 298 298 298 298 298 298 297 296 296 295 295 295 295 295 294 294 294 293 293 293 293 293 294 294 294 294 293 293 293 293 292 292 292 291 291 290 290 289 288 287 286 285 284 284 283 282 282 281 281 280 279 279 278 277 276 275 273 271 269 267 265 263 261 259 257 256 254 253 253 252 252 252 252 252 251 251 251 250 250 249 249 249
299 299 299 298 298 298 298 298 298 297 296 296 295 295 295 295 295 294 294 294 293 293 293 293 293 293 293 294 293 293 293 292 292 292 292 292 291 291 290 290 289 288 288 286 285 284 283 283 282 281 281 280 280 279 279 278 278 277 275 273 272 270 267 265 263 261 259 257 255 253 252 251 251 250 250 250 250 250 249 249 249 249 248 248 248 247
299 299 299 299 299 298 298 298 297 297 296 295 295 295 295 294 294 294 294 293 293 293 292 293 293 293 293 293 293 292 292 292 292 291 291 291 290 290 290 289 288 288 286 285 284 283 282 281 280 280 279 279 279 278 278 277 277 276 274 272 271 268 266 263 261 258 256 254 252 251 250 249 248 248 248 248 248 248 248 247 247 247 246 246 246 245
300 300 299 299 299 298 298 298 297 297 296 295 295 294 294 294 294 294 293 293 292 292 292 292 293 293 293 293 292 292 291 291 291 291 291 290 290 289 289 288 287 286 285 284 283 282 281 280 279 278 278 278 278 278 277 277 276 275 274 271 269 267 263 260 257 255 253 250 249 247 247 246 246 247 247 247 247 247 247 246 245 245 244 243 243 242
300 300 299 299 299 298 298 298 297 296 296 295 294 294 294 294 294 293 293 292 292 292 292 292 292 292 292 292 291 291 291 291 290 290 290 290 289 288 288 287 286 285 284 282 281 280 279 278 277 277 277 277 277 277 276 276 275 274 271 269 266 263 259 256 253 250 248 246 245 245 245 245 245 245 245 246 245 245 244 243 242 242 241 240 240 240
300 300 299 299 299 298 298 298 297 296 295 295 294 294 294 293 293 293 292 292 291 291 291 292 292 292 291 291 291 290 290 290 290 290 289 289 288 287 286 285 284 283 282 281 279 279 278 277 277 276 276 276 276 275 275 274 273 271 269 266 262 259 254 251 248 245 243 242 242 243 243 244 244 244 244 244 243 242 241 240 239 238 237 237 237 237
300 300 299 299 299 298 298 297 297 296 295 294 294 294 293 293 292 292 291 291 291 291 291 291 291 291 290 290 290 289 289 289 289 289 289 288 287 286 285 283 282 281 280 279 278 278 277 277 276 276 275 275 274 274 273 272 270 267 264 260 257 253 250 247 244 242 240 240 241 242 242 243 243 243 242 242 240 239 237 236 235 235 235 235 235 236
300 300 299 299 299 298 298 297 296 295 295 294 294 293 293 292 292 291 291 290 290 290 290 290 290 290 289 289 289 288 288 289 288 288 288 287 286 284 282 282 280 279 279 278 278 277 277 276 275 275 274 273 273 271 270 268 266 262 258 255 252 248 246 244 242 241 240 240 240 241 242 242 241 241 240 238 237 235 234 233 233 232 232 233 234 235
300 300 299 299 299 298 298 297 296 295 294 294 293 293 292 292 291 291 290 290 290 290 289 289 289 288 288 288 288 288 288 288 288 287 286 285 283 282 280 279 278 278 278 277 277 277 276 275 274 274 273 271 270 268 266 263 260 257 253 250 247 245 244 242 241 241 240 239 240 239 239 238 238 237 237 235 234 232 231 230 230 230 230 231 232 234
300 299 299 299 298 298 297 296 296 295 294 293 293 292 292 291 290 290 289 289 289 289 289 288 288 287 287 287 287 287 287 287 286 286 284 282 281 279 278 277 277 277 277 277 277 276 275 274 273 271 270 268 266 263 261 258 255 252 249 247 245 243 243 242 241 240 239 238 237 236 235 234 234 233 233 231 230 229 228 226 226 227 227 228 229 231
299 299 299 298 298 298 297 296 295 294 293 293 292 292 291 290 290 290 289 289 289 288 288 287 287 286 286 286 286 286 286 286 284 283 282 280 278 277 276 276 276 276 277 276 276 275 273 272 270 269 266 265 262 259 256 253 251 249 247 244 244 242 241 240 239 239 237 235 233 232 230 230 229 228 227 226 224 223 223 222 222 223 224 225 226 227
299 299 298 298 298 297 296 295 294 294 293 292 292 291 290 290 289 289 289 288 288 288 287 287 286 286 286 286 286 285 285 284 282 281 279 277 276 275 275 275 276 276 276 275 274 272 271 269 267 265 263 260 258 255 251 249 247 245 244 242 241 240 239 237 236 234 231 230 228 226 225 224 223 222 221 219 217 216 216 217 218 219 220 221 223 224
Height
10399 10396 10394 10392 10390 10387 10384 10381 10379 10376 10372 10370 10367 10365 10362 10359 10357 10354 10352 10350 10347 10345 10342 10341 10338 10336 10333 10331 10328 10326 10324 10321 10319 10317 10315 10314 10312 10310 10309 10307 10306 10304 10302 10301 10299 10297 10296 10294 10292 10291 10289 10287 10286 10284 10283 10281 10279 10278 10277 10276 10276 10275 10276 10276 10276 10276 10276 10276 10276 10277 10277 10277 10277 10278 10278 10278 10278 10277 10277 10277 10277 10278 10279 10279 10279 10279
10390 10388 10386 10384 10382 10379 10376 10372 10371 10369 10365 10362 10359 10357 10355 10352 10349 10347 10344 10342 10339 10337 10334 10332 10329 10326 10324 10321 10319 10316 10314 10311 10309 10307 10306 10304 10302 10300 10299 10297 10296 10294 10292 10290 10288 10286 10284 10282 10281 10279 10277 10276 10275 10274 10272 10271 10269 10267 10266 10264 10264 10264 10264 10264 10264 10264 10265 10265 10266 10266 10267 10267 10267 10267 10268 10269 10268 10267 10267 10267 10267 10267 10268 10269 10269 10269
10382 10379 10377 10376 10374 10371 10367 10364 10362 10360 10357 10354 10351 10349 10347 10345 10342 10339 10337 10334 10331 10328 10326 10323 10320 10317 10314 10311 10309 10306 10304 10301 10299 10297 10295 10293 10291 10290 10288 10286 10284 10283 10281 10279 10277 10275 10273 10271 10269 10267 10266 10265 10264 10262 10261 10259 10257 10256 10254 10253 10252 10252 10252 10252 10253 10253 10254 10254 10255 10256 10256 10257 10257 10257 10257 10258 10258 10257 10257 10257 10257 10257 10257 10258 10259 10259
10375 10372 10369 10367 10366 10363 10360 10357 10354 10351 10349 10346 10344 10341 10339 10337 10334 10331 10329 10326 10323 10319 10316 10314 10311 10307 10304 10301 10299 10296 10294 10291 10289 10287 10285 10283 10281 10279 10277 10276 10274 10272 10269 10267 10266 10264 10261 10259 10257 10256 10255 10254 10252 10251 10250 10248 10246 10245 10243 10242 10241 10241 10241 10241 10241 10242 10242 10242 10244 10245 10245 10246 10247 10247 10247 10247 10247 10247 10247 10247 10247 10247 10247 10247 10248 10249
10367 10364 10361 10359 10357 10354 10351 10349 10346 10343 10340 10337 10335 10333 10331 10328 10326 10322 10320 10317 10314 10311 10307 10304 10301 10297 10294 10291 10288 10286 10284 10281 10278 10276 10274 10272 10270 10268 10266 10264 10262 10260 10257 10256 10254 10252 10250 10248 10246 10245 10244 10242 10242 10241 10239 10237 10236 10234 10232 10231 10231 10231 10231 10230 10230 10230 10231 10231 10232 10233 10234 10235 10236 10236 10236 10236 10237 10237 10237 10237 10237 10237 10237 10237 10237 10237
10359 10357 10354 10352 10349 10346 10344 10341 10337 10334 10331 10329 10326 10324 10322 10319 10316 10314 10311 10307 10305 10302 10299 10295 10291 10288 10285 10281 10278 10276 10273 10270 10267 10265 10263 10261 10259 10256 10254 10252 10250 10247 10246 10243 10241 10240 10238 10237 10236 10234 10233 10232 10231 10230 10229 10227 10225 10224 10222 10222 10221 10221 10219 10219 10218 10218 10218 10219 10220 10221 10222 10223 10224 10224 10224 10224 10225 10225 10226 10226 10226 10226 10226 10226 10226 10226
10351 10349 10346 10344 10341 10338 10336 10333 10329 10326 10322 10319 10317 10315 10312 10310 10307 10304 10301 10298 10296 10292 10289 10286 10282 10279 10276 10272 10268 10265 10262 10259 10257 10254 10252 10249 10247 10245 10242 10240 10237 10235 10233 10231 10229 10228 10227 10226 10224 10224 10223 10222 10221 10220 10219 10216 10215 10214 10213 10212 10211 10210 10208 10207 10207 10206 10206 10207 10207 10209 10210 10211 10212 10212 10212 10212 10212 10213 10214 10214 10214 10215 10216 10216 10216 10216
10342 10339 10337 10336 10333 10329 10326 10324 10321 10317 10314 10310 10307 10304 10302 10299 10297 10295 10292 10289 10286 10282 10279 10276 10272 10268 10266 10262 10259 10255 10251 10248 10246 10244 10241 10238 10236 10233 10231 10228 10226 10223 10221 10219 10217 10216 10216 10214 10214 10213 10212 10212 10211 10210 10208 10206 10204 10203 10202 10202 10201 10198 10196 10196 10195 10194 10194 10194 10196 10197 10198 10199 10200 10201 10201 10201 10201 10201 10202 10202 10203 10204 10204 10205 10206 10206
10335 10332 10329 10326 10324 10322 10318 10313 10310 10307 10306 10302 10298 10294 10292 10289 10286 10284 10282 10280 10277 10273 10269 10266 10261 10257 10254 10251 10248 10245 10241 10237 10234 10232 10230 10227 10224 10221 10219 10216 10214 10212 10209 10207 10206 10206 10204 10203 10202 10202 10202 10201 10200 10198 10196 10194 10192 10192 10191 10190 10188 10186 10185 10184 10182 10182 10182 10183 10184 10185 10186 10187 10188 10189 10189 10189 10189 10189 10190 10191 10192 10193 10194 10194 10195 10196
10326 10324 10321 10317 10315 10313 10310 10305 10299 10296 10294 10292 10288 10284 10281 10279 10276 10272 10270 10267 10266 10263 10261 10256 10252 10247 10243 10239 10236 10233 10231 10227 10224 10221 10219 10217 10214 10211 10207 10205 10203 10201 10199 10197 10196 10194 10193 10192 10191 10191 10190 10189 10187 10186 10184 10182 10181 10180 10179 10178 10176 10175 10173 10172 10171 10171 10171 10172 10172 10174 10175 10176 10177 10177 10177 10177 10177 10178 10179 10181 10181 10182 10183 10184 10185 10186
10317 10314 10312 10309 10306 10302 10300 10296 10291 10287 10284 10281 10277 10272 10269 10268 10266 10264 10261 10256 10252 10251 10249 10246 10242 10238 10234 10229 10224 10220 10218 10216 10214 10211 10208 10206 10203 10200 10197 10194 10192 10191 10189 10187 10186 10184 10182 10181 10180 10179 10177 10176 10175 10173 10171 10169 10169 10168 10167 10166 10165 10164 10162 10161 10161 10160 10160 10161 10162 10163 10164 10166 10166 10167 10167 10167 10167 10167 10169 10169 10171 10172 10173 10174 10174 10175
10307 10304 10301 10299 10296 10292 10289 10285 10281 10277 10274 10271 10266 10261 10257 10254 10254 10253 10251 10246 10241 10238 10236 10234 10231 10227 10223 10219 10214 10209 10206 10204 10203 10201 10198 10195 10192 10189 10186 10184 10182 10180 10179 10177 10175 10173 10171 10169 10168 10167 10166 10164 10162 10161 10160 10159 10157 10157 10156 10155 10154 10152 10152 10151 10150 10149 10150 10151 10152 10153 10154 10155 10156 10156 10157 10157 10157 10157 10159 10159 10160 10161 10162 10163 10164 10165
10297 10294 10291 10288 10285 10282 10278 10274 10271 10266 10262 10259 10255 10251 10246 10242 10241 10240 10238 10234 10230 10227 10226 10224 10219 10215 10211 10207 10204 10199 10196 10193 10192 10191 10189 10186 10181 10177 10175 10173 10171 10170 10169 10167 10164 10162 10159 10158 10157 10156 10154 10153 10152 10151 10149 10149 10147 10146 10145 10144 10143 10142 10141 10141 10140 10140 10140 10141 10142 10143 10144 10146 10146 10147 10147 10147 10147 10148 10149 10149 10151 10152 10153 10154 10154 10155
10286 10284 10281 10277 10274 10271 10268 10264 10261 10256 10251 10247 10244 10241 10237 10233 10231 10228 10226 10222 10219 10216 10215 10214 10210 10205 10200 10196 10192 10188 10186 10184 10182 10181 10179 10176 10171 10168 10165 10163 10161 10160 10159 10156 10153 10150 10148 10147 10146 10145 10144 10143 10142 10141 10139 10139 10137 10136 10135 10134 10133 10132 10131 10132 10132 10131 10131 10132 10133 10134 10136 10137 10137 10137 10137 10137 10138 10139 10139 10141 10142 10142 10143 10144 10145 10146
10277 10274 10271 10267 10264 10261 10257 10254 10251 10246 10241 10236 10233 10231 10227 10224 10220 10217 10214 10212 10208 10206 10204 10202 10199 10195 10190 10186 10181 10178 10176 10174 10172 10171 10169 10166 10162 10158 10156 10154 10152 10151 10149 10146 10142 10139 10138 10137 10136 10136 10135 10134 10132 10131 10130 10129 10128 10127 10126 10124 10124 10123 10123 10123 10123 10123 10123 10124 10124 10126 10127 10127 10128 10128 10128 10129 10129 10129 10131 10131 10132 10133 10134 10134 10136 10136
10268 10266 10262 10257 10254 10251 10247 10244 10240 10236 10230 10226 10223 10221 10217 10214 10210 10206 10204 10201 10199 10196 10194 10192 10189 10185 10179 10174 10171 10168 10166 10164 10162 10162 10160 10156 10152 10149 10146 10144 10142 10141 10139 10136 10133 10131 10129 10128 10127 10127 10126 10124 10123 10122 10121 10120 10119 10117 10117 10116 10116 10116 10115 10115 10115 10115 10115 10116 10116 10117 10119 10119 10119 10119 10119 10120 10121 10121 10122 10122 10123 10124 10125 10126 10126 10126
10259 10257 10254 10249 10244 10241 10237 10234 10229 10224 10220 10216 10214 10211 10208 10204 10201 10197 10194 10191 10189 10187 10185 10182 10179 10175 10170 10164 10160 10158 10157 10155 10153 10152 10151 10147 10143 10139 10137 10136 10133 10131 10129 10127 10124 10122 10121 10120 10119 10118 10117 10116 10114 10113 10112 10111 10111 10109 10109 10109 10109 10109 10108 10107 10107 10107 10107 10109 10109 10110 10111 10111 10111 10111 10111 10112 10112 10113 10114 10114 10114 10115 10116 10116 10117 10117
10251 10248 10245 10240 10235 10231 10227 10223 10219 10214 10209 10206 10203 10201 10198 10194 10191 10188 10186 10182 10180 10177 10175 10172 10169 10166 10161 10156 10151 10148 10147 10146 10144 10142 10141 10138 10134 10131 10128 10126 10124 10123 10121 10119 10116 10114 10113 10112 10111 10110 10109 10107 10106 10106 10104 10104 10103 10102 10102 10102 10101 10101 10101 10100 10099 10099 10100 10101 10102 10102 10102 10103 10103 10103 10103 10104 10104 10105 10106 10106 10106 10106 10107 10107 10108 10109
10241 10238 10235 10231 10225 10220 10216 10212 10207 10204 10199 10196 10192 10190 10187 10184 10181 10179 10176 10173 10171 10168 10165 10161 10157 10154 10152 10147 10143 10140 10138 10137 10136 10134 10132 10129 10126 10122 10119 10117 10116 10115 10113 10111 10109 10107 10106 10105 10104 10102 10101 10100 10099 10098 10097 10096 10096 10095 10095 10094 10094 10094 10092 10092 10092 10092 10094 10094 10096 10096 10096 10096 10096 10096 10096 10096 10097 10097 10097 10097 10098 10098 10099 10099 10100 10101
10229 10226 10223 10219 10215 10210 10205 10200 10196 10192 10189 10186 10182 10180 10177 10174 10172 10169 10166 10164 10161 10158 10155 10151 10148 10144 10142 10139 10135 10132 10130 10129 10127 10126 10125 10122 10117 10113 10111 10110 10109 10107 10106 10103 10101 10100 10099 10097 10096 10095 10094 10093 10092 10091 10091 10089 10089 10089 10088 10087 10086 10086 10086 10085 10086 10087 10087 10088 10089 10089 10089 10089 10089 10089 10089 10089 10089 10090 10090 10090 10091 10091 10091 10091 10092 10093
10217 10214 10210 10207 10204 10199 10194 10189 10185 10181 10178 10176 10172 10170 10167 10165 10162 10160 10157 10154 10151 10147 10144 10142 10139 10136 10133 10130 10126 10124 10122 10121 10120 10119 10117 10114 10110 10106 10104 10102 10102 10101 10098 10096 10095 10094 10092 10091 10089 10088 10087 10086 10086 10085 10084 10083 10083 10082 10081 10080 10079 10079 10079 10079 10080 10081 10082 10082 10082 10082 10082 10082 10082 10082 10082 10082 10082 10082 10082 10083 10083 10084 10084 10085 10086 10087
10206 10202 10198 10194 10191 10187 10184 10179 10174 10171 10167 10166 10162 10160 10157 10156 10154 10151 10148 10146 10142 10138 10135 10132 10130 10127 10124 10121 10118 10116 10114 10113 10113 10112 10110 10106 10102 10098 10097 10096 10096 10094 10092 10090 10088 10087 10086 10084 10083 10082 10081 10080 10079 10078 10077 10076 10076 10076 10074 10073 10072 10073 10073 10074 10075 10076 10076 10076 10076 10076 10076 10076 10076 10076 10076 10076 10076 10076 10076 10076 10077 10077 10078 10079 10080 10081
10194 10191 10187 10183 10179 10176 10172 10168 10164 10161 10158 10156 10153 10151 10149 10147 10146 10143 10140 10136 10132 10129 10126 10124 10122 10119 10117 10113 10110 10108 10107 10106 10106 10104 10102 10099 10094 10091 10091 10090 10089 10087 10085 10084 10082 10081 10079 10078 10077 10076 10075 10074 10073 10072 10071 10071 10069 10069 10067 10067 10067 10067 10069 10069 10070 10071 10071 10070 10070 10070 10070 10070 10070 10070 10069 10069 10069 10069 10070 10070 10071 10072 10072 10074 10074 10076
10183 10180 10176 10172 10169 10165 10161 10158 10154 10151 10148 10146 10143 10141 10140 10139 10137 10135 10132 10128 10124 10121 10119 10117 10115 10112 10109 10106 10103 10101 10099 10099 10098 10097 10095 10091 10087 10085 10085 10084 10083 10081 10079 10077 10076 10075 10074 10072 10071 10070 10069 10068 10067 10066 10066 10064 10064 10063 10062 10062 10062 10063 10064 10064 10065 10065 10064 10064 10064 10064 10064 10064 10064 10064 10064 10064 10064 10064 10064 10065 10066 10067 10067 10068 10069 10069
10174 10171 10167 10163 10159 10155 10151 10148 10145 10142 10139 10136 10134 10132 10131 10130 10128 10126 10124 10121 10117 10115 10112 10111 10108 10105 10102 10100 10097 10095 10093 10092 10092 10090 10087 10084 10081 10079 10079 10079 10077 10076 10073 10072 10071 10070 10068 10067 10066 10065 10064 10063 10062 10061 10060 10059 10059 10058 10057 10057 10058 10059 10059 10059 10059 10059 10059 10059 10059 10059 10059 10059 10059 10059 10059 10059 10059 10059 10059 10060 10061 10061 10062 10062 10064 10064
10167 10163 10159 10155 10151 10147 10143 10140 10136 10133 10131 10128 10126 10124 10124 10122 10121 10119 10117 10114 10111 10108 10106 10104 10101 10099 10096 10094 10091 10089 10088 10087 10086 10084 10081 10079 10076 10074 10074 10073 10072 10070 10067 10066 10066 10064 10063 10062 10061 10059 10059 10057 10057 10056 10055 10054 10054 10053 10053 10054 10054 10054 10055 10055 10054 10054 10054 10054 10054 10054 10054 10054 10054 10054 10054 10054 10054 10054 10055 10055 10056 10057 10057 10058 10059 10060
10158 10155 10151 10147 10144 10140 10136 10132 10129 10126 10124 10121 10120 10119 10117 10116 10114 10111 10107 10105 10103 10101 10099 10097 10095 10092 10091 10088 10086 10084 10082 10081 10080 10078 10076 10074 10071 10069 10068 10067 10066 10064 10062 10061 10061 10059 10058 10057 10056 10054 10054 10052 10052 10051 10051 10049 10049 10049 10049 10049 10050 10050 10051 10050 10050 10050 10050 10050 10050 10050 10050 10050 10050 10050 10049 10049 10049 10050 10050 10051 10052 10052 10053 10054 10054 10056
10149 10146 10142 10139 10136 10133 10130 10126 10123 10119 10116 10114 10112 10111 10109 10107 10105 10102 10099 10097 10096 10094 10093 10091 10089 10086 10084 10082 10080 10079 10077 10076 10074 10072 10070 10068 10067 10065 10064 10062 10061 10059 10058 10056 10056 10055 10054 10052 10051 10049 10049 10048 10047 10046 10046 10045 10045 10045 10045 10046 10046 10046 10046 10046 10046 10046 10046 10046 10046 10046 10046 10046 10046 10046 10045 10046 10046 10046 10046 10047 10047 10048 10049 10049 10051 10051
10141 10137 10134 10132 10129 10126 10122 10119 10116 10112 10109 10107 10105 10104 10102 10099 10097 10094 10091 10090 10089 10087 10086 10084 10082 10081 10079 10077 10074 10073 10072 10071 10069 10067 10065 10063 10062 10061 10059 10057 10056 10054 10053 10052 10051 10050 10049 10047 10046 10045 10044 10044 10043 10042 10041 10041 10041 10041 10041 10041 10042 10042 10042 10042 10042 10042 10042 10042 10042 10042 10042 10042 10042 10042 10041 10041 10042 10042 10042 10043 10044 10044 10045 10046 10047 10048
10132 10129 10126 10123 10121 10118 10115 10112 10109 10106 10103 10101 10099 10097 10095 10092 10090 10087 10086 10084 10083 10081 10079 10077 10076 10074 10073 10071 10069 10067 10066 10065 10064 10062 10060 10059 10057 10056 10054 10053 10051 10050 10049 10048 10047 10046 10044 10043 10042 10041 10040 10039 10039 10038 10037 10037 10037 10037 10037 10037 10038 10038 10038 10038 10038 10038 10038 10038 10038 10038 10038 10038 10038 10038 10038 10038 10038 10038 10039 10039 10040 10041 10042 10042 10044 10044
10125 10121 10118 10115 10112 10110 10107 10104 10102 10099 10097 10096 10094 10091 10089 10086 10084 10081 10079 10078 10077 10076 10074 10072 10070 10069 10067 10066 10064 10062 10060 10059 10058 10057 10056 10054 10052 10051 10050 10049 10047 10046 10045 10044 10043 10042 10039 10038 10037 10037 10036 10036 10035 10034 10034 10033 10033 10034 10034 10034 10034 10034 10034 10034 10034 10034 10034 10035 10035 10035 10035 10035 10035 10035 10034 10035 10035 10035 10036 10036 10037 10038 10039 10040 10041 10041
10117 10114 10111 10108 10106 10102 10100 10097 10095 10092 10091 10089 10087 10086 10082 10079 10077 10075 10074 10072 10071 10070 10068 10066 10064 10063 10062 10061 10059 10057 10056 10054 10053 10052 10051 10050 10048 10047 10046 10044 10042 10041 10041 10041 10040 10039 10036 10034 10033 10033 10032 10032 10031 10031 10030 10030 10030 10030 10031 10031 10031 10031 10031 10031 10031 10031 10031 10031 10032 10032 10032 10032 10031 10031 10031 10032 10032 10032 10033 10034 10034 10035 10036 10037 10037 10039
10111 10107 10104 10101 10099 10096 10093 10091 10088 10086 10085 10084 10082 10079 10076 10074 10071 10070 10068 10067 10066 10064 10062 10061 10059 10057 10057 10056 10054 10053 10051 10049 10048 10047 10046 10045 10044 10042 10041 10040 10039 10037 10037 10036 10035 10034 10032 10031 10029 10029 10029 10028 10027 10027 10027 10027 10027 10027 10027 10027 10027 10027 10028 10028 10028 10028 10028 10029 10029 10029 10029 10029 10029 10028 10028 10029 10029 10029 10031 10031 10032 10032 10033 10034 10035 10036
10104 10101 10097 10095 10092 10089 10086 10084 10082 10081 10079 10078 10076 10073 10070 10067 10066 10064 10063 10062 10061 10059 10057 10056 10054 10053 10052 10051 10050 10049 10047 10046 10044 10042 10042 10041 10040 10039 10037 10036 10036 10034 10033 10032 10031 10030 10029 10027 10026 10026 10025 10025 10024 10024 10024 10024 10024 10024 10024 10024 10024 10024 10025 10025 10025 10025 10026 10026 10026 10026 10026 10026 10026 10026 10026 10026 10026 10027 10027 10028 10029 10030 10031 10031 10032 10033
10097 10094 10091 10089 10086 10083 10080 10078 10076 10075 10074 10072 10070 10067 10064 10062 10061 10059 10058 10057 10056 10054 10052 10051 10049 10049 10047 10046 10045 10044 10042 10041 10040 10039 10038 10037 10036 10035 10034 10032 10031 10031 10029 10029 10027 10026 10025 10024 10023 10022 10022 10022 10021 10021 10021 10021 10021 10021 10021 10022 10022 10022 10022 10022 10022 10022 10022 10022 10023 10023 10023 10023 10022 10022 10023 10023 10024 10024 10025 10026 10027 10027 10028 10029 10030 10031
10090 10087 10085 10082 10080 10077 10074 10072 10071 10069 10068 10066 10064 10061 10059 10057 10056 10054 10053 10052 10051 10049 10047 10046 10045 10044 10043 10042 10041 10039 10038 10037 10036 10035 10034 10033 10032 10031 10030 10029 10028 10027 10026 10025 10024 10023 10022 10021 10020 10019 10019 10019 10018 10018 10018 10018 10018 10018 10019 10019 10019 10019 10019 10019 10019 10019 10020 10020 10020 10020 10020 10020 10020 10020 10020 10021 10021 10022 10022 10023 10024 10025 10026 10026 10027 10027
10084 10081 10079 10077 10074 10071 10069 10067 10066 10064 10062 10061 10058 10056 10054 10052 10051 10050 10049 10047 10046 10044 10043 10042 10041 10040 10039 10037 10037 10035 10034 10032 10032 10031 10029 10029 10028 10027 10026 10025 10024 10024 10022 10022 10021 10019 10019 10017 10017 10016 10016 10016 10016 10015 10015 10015 10016 10016 10016 10016 10016 10016 10016 10017 10017 10017 10017 10017 10017 10017 10017 10017 10017 10017 10018 10018 10019 10019 10021 10021 10022 10022 10023 10024 10025 10026
10078 10076 10073 10071 10068 10066 10064 10062 10061 10059 10057 10055 10052 10051 10049 10047 10046 10045 10044 10042 10041 10040 10039 10037 10037 10036 10035 10034 10032 10031 10030 10029 10027 10027 10026 10025 10024 10024 10022 10022 10021 10020 10019 10019 10017 10016 10016 10015 10014 10013 10013 10012 10012 10012 10012 10012 10012 10013 10013 10014 10014 10014 10014 10014 10014 10014 10015 10015 10015 10015 10015 10015 10015 10016 10016 10016 10017 10017 10018 10019 10020 10021 10021 10022 10022 10023
10072 10070 10067 10065 10063 10061 10059 10057 10056 10054 10052 10049 10047 10046 10044 10043 10042 10041 10039 10038 10037 10036 10034 10034 10032 10032 10031 10030 10029 10027 10026 10025 10024 10023 10022 10021 10021 10020 10019 10018 10017 10017 10016 10015 10014 10014 10013 10012 10011 10011 10010 10010 10009 10009 10010 10010 10010 10011 10011 10011 10011 10012 10012 10012 10012 10012 10012 10012 10012 10012 10012 10013 10014 10014 10014 10014 10014 10016 10016 10017 10017 10018 10019 10020 10021 10021
10067 10064 10062 10060 10057 10056 10054 10052 10051 10049 10047 10044 10042 10041 10039 10039 10037 10036 10035 10034 10032 10031 10031 10029 10029 10027 10027 10026 10025 10024 10022 10021 10021 10019 10019 10018 10017 10016 10016 10015 10014 10014 10013 10012 10011 10011 10010 10009 10009 10008 10007 10007 10007 10007 10007 10007 10007 10008 10008 10009 10009 10009 10009 10009 10010 10010 10010 10010 10010 10011 10011 10011 10011 10011 10012 10012 10013 10014 10014 10015 10016 10017 10017 10018 10019 10019
10061 10059 10057 10054 10052 10051 10049 10047 10046 10044 10041 10039 10037 10036 10035 10034 10033 10032 10031 10029 10029 10027 10026 10025 10024 10024 10023 10022 10021 10020 10019 10018 10017 10016 10016 10015 10014 10013 10012 10012 10011 10011 10010 10009 10009 10008 10007 10007 10006 10006 10005 10005 10005 10005 10005 10005 10006 10006 10006 10006 10007 10007 10007 10007 10007 10007 10008 10008 10008 10009 10009 10009 10009 10009 10010 10011 10011 10012 10012 10014 10014 10015 10016 10016 10017 10017
10055 10053 10051 10049 10047 10045 10044 10042 10041 10039 10037 10034 10033 10031 10031 10029 10029 10027 10027 10026 10024 10023 10022 10022 10021 10020 10019 10019 10017 10016 10016 10014 10014 10013 10012 10012 10011 10010 10009 10009 10008 10007 10007 10006 10006 10005 10005 10004 10004 10003 10002 10002 10002 10002 10002 10003 10004 10004 10004 10004 10004 10005 10005 10006 10006 10006 10006 10006 10006 10006 10007 10007 10007 10007 10008 10009 10009 10011 10011 10012 10012 10014 10014 10015 10016 10016
10050 10047 10046 10044 10042 10040 10039 10037 10036 10034 10032 10030 10028 10027 10026 10025 10024 10024 10023 10022 10021 10020 10019 10017 10017 10016 10016 10015 10014 10013 10012 10011 10011 10010 10009 10009 10007 10007 10006 10006 10005 10004 10004 10004 10003 10002 10002 10002 10001 10001 10001 10001 10001 10001 10001 10001 10001 10002 10002 10002 10002 10003 10003 10003 10003 10004 10004 10004 10004 10004 10004 10005 10005 10006 10007 10007 10008 10009 10010 10011 10011 10012 10012 10013 10014 10014
10044 10042 10041 10039 10037 10036 10034 10032 10031 10029 10027 10026 10024 10022 10022 10021 10021 10019 10019 10017 10017 10016 10015 10014 10014 10013 10012 10011 10011 10010 10009 10008 10007 10007 10006 10006 10005 10004 10003 10002 10002 10002 10001 10001 10001 10000 10000 9999 9999 9999 9999 9999 9999 9999 9999 9999 9999 10000 10000 10001 10001 10001 10001 10001 10001 10002 10002 10002 10002 10002 10002 10003 10004 10005 10006 10006 10007 10008 10009 10009 10010 10011 10011 10012 10012 10012
10039 10037 10036 10034 10032 10031 10029 10027 10026 10024 10022 10021 10020 10019 10018 10017 10016 10016 10014 10014 10013 10012 10011 10011 10010 10009 10009 10008 10007 10007 10006 10006 10005 10004 10003 10002 10002 10001 10001 10000 9999 9999 9999 9999 9998 9998 9998 9997 9997 9997 9997 9997 9997 9997 9997 9997 9998 9998 9998 9999 9999 9999 9999 9999 10000 10000 10001 10001 10001 10001 10001 10002 10002 10004 10004 10005 10006 10007 10007 10008 10009 10009 10009 10010 10011 10011
10034 10032 10031 10029 10027 10026 10025 10023 10022 10020 10018 10017 10016 10015 10014 10013 10012 10012 10011 10010 10009 10009 10008 10007 10007 10006 10006 10005 10004 10004 10003 10002 10002 10001 10001 10000 9999 9999 9998 9997 9997 9997 9996 9996 9996 9996 9996 9996 9996 9996 9996 9996 9996 9996 9996 9996 9996 9996 9996 9997 9997 9997 9997 9997 9998 9998 9999 9999 9999 9999 10000 10001 10002 10002 10003 10004 10004 10006 10006 10007 10007 10007 10008 10009 10009 10009
10029 10027 10026 10024 10023 10022 10021 10019 10017 10016 10014 10013 10012 10011 10010 10009 10009 10008 10007 10007 10006 10006 10005 10004 10004 10003 10002 10002 10001 10001 10001 10000 9999 9999 9998 9997 9997 9996 9996 9995 9994 9994 9994 9994 9994 9994 9994 9994 9994 9994 9994 9994 9994 9994 9994 9994 9995 9995 9995 9995 9996 9996 9996 9996 9996 9997 9997 9997 9998 9999 9999 10000 10001 10001 10002 10003 10004 10004 10005 10006 10006 10007 10007 10007 10008 10009
10024 10022 10021 10020 10019 10017 10016 10015 10013 10012 10011 10009 10008 10007 10006 10006 10005 10004 10004 10004 10003 10002 10002 10001 10001 10000 10000 9999 9999 9998 9997 9997 9996 9996 9995 9995 9994 9994 9993 9992 9992 9992 9992 9992 9992 9992 9992 9992 9992 9992 9992 9992 9992 9992 9992 9993 9993 9994 9994 9994 9994 9994 9994 9995 9995 9996 9996 9997 9997 9998 9999 9999 10000 10001 10001 10002 10002 10003 10004 10004 10005 10006 10006 10006 10007 10007
10019 10018 10017 10016 10014 10014 10012 10011 10009 10008 10007 10006 10004 10004 10003 10002 10002 10001 10001 10000 10000 9999 9999 9998 9998 9997 9997 9996 9996 9996 9995 9994 9994 9993 9992 9992 9992 9991 9991 9991 9991 9991 9991 9991 9991 9991 9991 9991 9991 9991 9991 9991 9991 9991 9991 9992 9992 9992 9992 9992 9992 9993 9993 9994 9994 9995 9996 9996 9997 9997 9998 9998 9999 9999 10000 10001 10002 10002 10003 10004 10004 10004 10005 10006 10006 10007
10016 10014 10013 10012 10011 10009 10009 10007 10006 10004 10003 10002 10001 10001 9999 9999 9998 9998 9997 9997 9997 9996 9996 9996 9995 9994 9994 9994 9993 9992 9992 9992 9991 9991 9991 9990 9989 9989 9989 9989 9989 9989 9989 9989 9989 9989 9989 9989 9989 9989 9989 9990 9991 9991 9991 9990 9990 9991 9991 9991 9991 9992 9992 9993 9994 9994 9995 9996 9996 9996 9997 9997 9998 9999 9999 10001 10001 10002 10002 10002 10003 10004 10004 10005 10006 10006
10012 10011 10009 10008 10007 10006 10005 10004 10002 10001 10000 9999 9998 9997 9996 9996 9995 9995 9994 9994 9994 9994 9993 9992 9992 9992 9991 9991 9991 9990 9990 9989 9989 9989 9988 9987 9987 9987 9987 9987 9987 9987 9987 9987 9987 9987 9987 9987 9987 9987 9988 9988 9989 9989 9988 9989 9989 9989 9989 9990 9991 9991 9992 9992 9992 9993 9994 9995 9995 9996 9996 9997 9997 9999 9999 10000 10001 10001 10001 10002 10002 10003 10004 10004 10004 10005